Location: Sagn�
(15.2046°N, 12.7898°W)
Time: 12:19:44
(UTC+00:00)

Cosmos 1503 Rocket - Pass Details

Date: 08 May 2021
Orbit: 752 x 791 km, 74.0° (Epoch: 14 June)

Event Time Altitude Azimuth Distance (km) Brightness Sun altitude
Exits shadow 20:45:20 47° 148° (SSE) 984 4.2 -22.0°
Maximum altitude 20:46:25 58° 102° (ESE) 872 3.9 -22.2°
Drops below altitude 10° 20:51:27 10° 24° (NNE) 2,269 6.5 -23.3°
Sets 20:53:51 0° 20° (NNE) 3,197 7.3 -23.8°
